Location: LDNL
(36.4545°S, 141.6685°E)
Time: 16:37:40
(UTC+10:00)

Courier 1B Rocket - Pass Details

Date: 13 August 2022
Orbit: 920 x 1202 km, 28.2° (Epoch: 25 September)

Event Time Altitude Azimuth Distance (km) Brightness Sun altitude
Exits shadow 05:54:50 18° 298° (WNW) 2,584 6.7 -17.4°
Maximum altitude 06:00:24 46° 2° (N) 1,536 6.1 -16.2°
Drops below altitude 10° 06:07:28 10° 72° (ENE) 3,002 8.9 -14.8°
Sets 06:10:17 0° 78° (ENE) 3,920 10.1 -14.3°
